sat.trackr.live / text

‹ back to catalog

STARLINK-31965

NORAD 59888 · 2024-100D

PAYLOAD ACTIVE UNKNOWN

§ Identity

Operator
Country
US
Launch date
2024-05-28
Launch site
AFETR
Launch vehicle
Mass (kg)
RCS (m²)

Purposes: comms

External: N2YO · Heavens-Above · Gunter

§ Orbital elements

Epoch: 2026-09-21T20:12:14.352192Z

Period
94.27 min
Inclination
42.9996°
Eccentricity
0.0001937
Mean motion
15.27594164 rev/d
Perigee alt
481.7 km
Apogee alt
484.3 km
Semi-major
6,861.1 km
B*
4.0152e-4
RAAN
97.8200°
Arg perigee
41.0026°
Mean anomaly
319.0971°
Rev number
13,105

§ Raw data

STARLINK-319651 59888U 24100D   26264.84183278  .00010808  00000+0  40152-3 0  99972 59888  42.9996  97.8200 0001937  41.0026 319.0971 15.27594164131052

JSON: /api/v1/satellites/59888 · /tle

For live sub-satellite position, see the globe view (requires WebGL).

§ Visibility from observer

Set your observer location to see the next 7 days of passes ≥ 10°. The values pass through the URL so the page stays shareable.

No JS? Fill the form by hand. The geolocation button needs JavaScript.